Temperature
14 14 14 14 14 15 15 15 15 15 15 15 15 15 15 15 15 15 15 15 15 15 15 14 14 14 14 14 14 15 15 15 15 15 15 15 15 15 15 15 15 14 14
14 14 14 14 14 14 15 15 15 15 15 15 15 15 15 15 15 14 15 15 15 15 14 14 14 14 14 14 14 14 14 14 14 14 14 14 14 14 14 14 14 14 14
14 14 14 14 14 14 14 14 14 14 14 15 15 15 14 14 14 14 14 14 14 14 14 14 14 14 14 14 14 14 14 14 14 14 14 14 14 14 14 14 14 14 14
14 14 14 14 14 14 14 14 14 14 14 14 14 14 14 14 14 14 14 14 14 14 14 14 14 14 14 14 14 14 14 14 14 14 14 14 14 14 14 14 14 14 14
14 13 13 13 13 13 14 14 14 14 14 14 14 14 14 14 14 14 14 14 14 14 14 14 14 14 14 14 14 13 14 14 14 14 14 14 14 14 14 14 14 13 13
13 13 13 13 13 13 13 13 14 14 14 14 14 14 14 14 14 14 14 14 14 14 14 14 14 14 13 13 13 13 13 13 13 13 13 13 13 13 13 13 13 13 13
13 13 12 13 13 13 13 13 13 13 13 13 14 14 14 14 14 14 14 14 14 13 13 13 13 13 13 13 13 13 13 13 13 13 13 13 13 13 13 13 13 13 13
13 12 12 12 12 12 12 13 13 13 13 13 13 13 13 13 13 13 13 13 13 13 13 13 13 13 13 13 13 13 13 13 13 13 13 13 13 13 13 13 13 12 12
12 12 12 12 12 12 12 12 12 13 13 13 13 13 13 13 13 13 13 13 13 13 13 13 13 12 12 12 12 12 12 12 13 13 12 12 12 12 12 12 12 12 12
11 11 11 11 12 12 12 12 12 12 12 13 13 13 13 13 13 13 13 13 12 12 12 12 12 12 12 12 12 12 12 12 12 12 12 12 12 12 12 12 12 12 12
11 11 11 11 11 11 12 12 12 12 12 12 12 12 12 12 12 12 12 12 12 12 12 12 12 12 12 12 12 12 12 12 12 12 12 11 11 12 12 12 11 11 11
10 10 10 10 10 11 11 11 11 11 12 12 12 12 12 12 12 12 12 12 12 12 12 12 12 12 12 11 11 11 11 11 11 11 11 11 11 11 11 11 11 11 11
10 10 10 10 10 10 10 11 11 11 11 11 11 11 12 12 12 12 11 11 11 11 11 11 11 11 11 11 11 11 11 11 11 11 11 11 11 11 11 11 11 11 11
9 9 9 9 10 10 10 10 10 10 11 11 11 11 11 11 11 11 11 11 11 11 11 11 11 11 11 11 11 11 11 11 11 10 10 10 11 11 11 10 10 10 10
9 9 9 9 9 9 9 10 10 10 10 10 10 11 11 11 11 11 11 11 11 11 11 11 11 10 10 10 10 10 10 10 10 10 10 10 10 10 10 10 10 10 10
8 8 8 8 8 9 9 9 9 9 10 10 10 10 10 10 10 10 10 10 10 10 10 10 10 10 10 10 10 10 10 10 10 10 10 10 10 10 10 10 10 9 9
8 8 8 8 8 8 8 8 9 9 9 9 10 10 10 10 10 10 10 10 10 10 10 10 10 10 10 9 9 9 9 9 9 9 9 9 9 9 9 9 9 9 9
8 8 8 8 8 8 8 8 8 8 8 9 9 9 9 9 9 9 9 9 9 9 10 10 9 9 9 9 9 9 9 9 9 9 9 9 9 9 9 9 9 9 9
7 7 7 7 7 7 7 7 7 7 8 8 8 8 9 9 9 9 9 9 9 9 9 9 9 9 9 9 8 8 8 8 8 8 8 8 8 8 9 9 9 9 9
7 7 7 7 7 7 7 7 7 7 7 7 8 8 8 8 8 8 8 8 8 8 8 8 8 8 8 8 8 8 8 7 8 8 8 8 8 8 8 8 8 8 8
6 6 6 6 6 6 6 6 6 6 6 7 7 7 7 7 8 8 8 8 8 8 8 8 8 8 8 8 8 7 7 7 7 7 7 7 7 7 7 8 8 8 8
5 5 5 6 6 6 6 6 6 6 6 6 6 6 7 7 7 7 7 7 7 8 7 8 7 7 7 7 7 7 6 6 6 6 6 6 7 7 7 7 7 7 7
4 4 5 5 5 5 5 5 5 5 5 5 5 6 6 6 6 6 6 7 7 7 7 7 7 7 7 7 7 7 6 6 5 5 5 6 6 6 6 6 7 7 7
3 4 4 4 4 4 4 4 4 4 4 5 5 5 5 5 5 6 6 6 6 6 7 7 7 7 7 7 6 6 6 6 5 5 5 5 5 6 6 6 6 6 6
2 3 3 3 4 4 4 3 3 4 4 4 4 4 4 4 5 5 5 5 5 5 6 6 6 6 6 6 6 6 6 6 6 5 4 5 5 5 5 5 5 5 5
2 2 2 3 3 3 3 3 3 3 3 3 3 3 3 4 4 4 4 4 4 5 5 5 5 5 5 5 5 6 6 6 6 5 5 4 4 5 4 4 5 5 5
Wind_Speed
2 4 8 9 10 11 12 12 13 13 13 13 14 15 15 15 15 16 16 16 16 16 16 16 17 17 18 18 18 19 19 19 19 19 18 18 18 19 19 19 18 17 19
4 7 9 9 10 11 12 12 12 13 13 13 14 14 15 15 15 15 15 15 15 16 16 16 16 17 17 17 18 18 18 18 18 18 17 17 18 18 18 18 17 17 19
6 7 9 9 10 11 12 12 13 13 12 13 13 14 14 14 15 15 14 15 15 15 15 16 16 16 16 17 17 18 18 18 17 17 16 15 16 18 18 18 18 19 19
7 7 8 9 10 11 12 12 13 13 13 13 13 14 14 14 14 14 14 14 15 15 15 15 16 16 16 16 17 17 17 17 17 16 14 13 14 17 17 18 18 19 19
6 7 8 9 9 11 12 12 12 13 13 13 13 13 14 14 14 14 14 14 14 15 15 15 16 15 15 16 16 16 17 17 17 15 14 13 13 16 17 18 18 18 19
6 7 8 9 9 10 11 12 12 13 13 13 13 13 13 13 13 14 13 14 14 14 15 15 15 15 15 16 16 16 16 17 16 15 14 13 13 15 17 17 17 18 18
5 6 8 9 8 9 10 11 12 12 13 13 12 12 13 13 13 13 13 13 13 14 14 15 14 14 15 15 15 16 16 17 16 14 13 13 14 16 16 17 17 17 18
5 6 8 9 9 8 9 10 11 12 12 12 12 12 12 12 12 13 13 13 13 13 14 14 14 14 14 15 15 16 16 15 14 13 13 13 14 16 16 17 17 17 18
5 5 5 7 8 8 8 9 10 11 11 12 12 12 11 12 12 12 12 13 13 13 13 13 13 13 14 14 15 15 16 15 14 12 11 12 14 15 16 16 17 17 17
4 4 4 5 6 7 8 9 10 10 10 11 11 11 11 11 11 11 12 12 12 12 12 13 13 13 14 14 14 15 15 14 13 12 10 11 14 15 16 16 17 17 17
3 3 3 4 5 6 7 8 9 9 9 10 10 10 10 10 10 9 10 12 12 12 12 12 13 13 14 14 14 15 14 12 12 11 10 12 14 14 15 16 16 16 16
2 1 2 3 3 5 6 7 7 7 8 8 8 9 8 9 9 8 10 11 11 11 11 12 12 13 12 11 12 13 12 12 11 10 11 13 14 14 15 15 15 16 15
4 2 2 3 4 4 5 6 6 6 7 7 7 8 8 8 8 8 7 9 9 10 9 10 10 10 10 9 10 11 11 11 10 10 11 12 13 13 14 14 14 15 14
3 2 1 2 4 4 5 5 6 5 5 5 6 7 7 6 6 6 6 7 7 7 8 8 8 9 9 9 10 10 10 9 10 9 10 12 12 12 13 13 14 14 13
3 2 1 2 3 4 5 5 5 4 5 5 6 6 7 6 5 5 5 6 7 7 8 7 7 8 8 8 9 9 9 9 9 9 9 11 11 12 12 13 13 13 13
3 3 2 2 3 4 4 4 4 4 5 6 6 5 7 7 6 5 5 5 6 7 7 7 7 7 7 7 8 9 9 9 10 10 10 10 11 11 11 12 12 12 12
4 3 3 3 4 4 4 4 5 5 5 5 5 6 6 7 7 6 5 4 5 7 8 8 7 7 6 7 6 7 8 8 9 10 10 9 9 10 11 11 11 12 12
3 3 3 3 3 4 4 4 4 5 5 4 5 5 6 6 7 6 5 4 5 7 7 6 5 5 5 5 4 5 6 7 9 10 10 9 9 9 10 11 11 11 11
3 4 3 3 4 3 4 4 4 4 4 4 4 5 5 6 7 7 5 4 6 6 5 5 4 5 6 5 5 5 5 6 7 9 9 9 9 9 9 10 10 10 10
2 3 4 4 3 4 3 3 3 3 3 4 4 4 5 6 7 7 5 5 6 5 4 4 5 4 6 6 6 6 5 5 7 7 7 8 9 9 9 9 9 8 8
1 1 2 4 4 4 3 3 3 2 2 2 3 4 5 5 6 6 5 5 5 4 5 5 5 6 5 5 5 5 4 5 5 5 6 7 8 8 9 8 8 7 7
1 1 2 2 4 4 4 3 3 2 1 2 2 3 4 5 6 6 5 4 4 4 5 5 6 4 4 4 4 5 3 2 2 3 3 4 5 6 7 6 7 6 6
0 1 1 1 2 3 4 3 3 2 2 1 1 1 2 4 5 5 5 5 4 5 6 6 6 5 6 3 2 4 5 4 2 1 2 2 3 4 4 4 5 5 5
2 1 1 1 2 3 4 4 5 4 3 2 2 2 1 3 3 4 5 5 5 4 5 5 5 3 6 5 2 1 2 4 4 2 0 1 2 2 2 2 3 3 4
2 1 1 1 1 2 4 4 5 4 3 2 2 2 2 1 2 4 4 4 4 4 5 5 4 3 4 5 4 2 2 2 2 3 3 1 0 0 0 1 2 3 3
2 1 0 1 1 1 3 4 5 5 4 4 3 3 2 2 1 2 4 4 4 4 4 5 5 4 4 4 3 3 4 4 3 3 3 3 2 1 1 1 2 3 2
Wind_Direction
182 173 156 146 133 125 120 115 112 109 106 104 103 101 100 97 100 100 98 97 96 94 92 90 89 88 88 86 85 84 82 81 79 77 78 81 83 83 83 80 78 77 81
160 160 147 141 134 128 123 119 115 111 108 107 105 104 103 102 99 101 100 99 97 96 94 92 90 89 88 87 87 86 84 82 80 77 76 77 81 84 84 83 82 83 83
136 148 148 139 135 132 128 123 119 116 112 109 108 107 107 104 101 100 101 101 101 98 97 95 93 90 89 89 89 87 85 84 82 79 76 75 81 85 86 85 85 85 84
134 137 142 138 135 136 132 129 125 121 117 114 111 110 109 107 105 103 101 104 103 101 99 98 96 94 92 91 90 88 86 83 83 82 77 75 81 87 87 86 87 86 85
126 132 137 132 135 140 137 132 129 127 122 118 115 114 113 111 108 106 103 103 104 102 101 100 98 96 93 92 90 88 87 86 84 81 76 75 81 88 89 88 87 88 88
121 131 137 130 132 138 140 136 133 131 127 123 120 119 117 115 113 110 108 103 104 105 104 102 99 97 95 93 90 88 89 87 85 80 77 77 82 92 92 91 90 90 91
122 126 137 133 130 132 138 140 137 133 130 127 124 123 120 119 116 114 111 110 105 107 107 105 101 98 96 93 90 88 89 89 86 80 77 79 86 91 93 94 93 92 92
123 123 136 138 135 132 133 141 140 135 132 131 127 126 124 121 119 117 116 114 109 108 109 106 103 100 98 95 92 89 90 90 87 82 80 83 91 93 93 92 92 91 90
103 110 121 133 138 138 134 133 140 138 135 134 132 127 124 122 121 120 119 116 114 109 110 108 103 99 97 96 92 89 91 88 86 83 83 87 95 95 95 94 93 92 90
79 85 85 116 129 130 132 133 132 134 136 133 131 127 125 124 122 122 121 119 117 111 111 110 104 101 97 94 90 89 91 87 84 81 82 92 96 96 96 95 94 93 92
82 73 76 87 112 128 130 133 128 130 131 129 126 124 120 116 116 118 122 121 118 112 109 110 104 102 97 93 89 87 88 84 82 79 85 96 98 98 98 97 97 96 95
148 134 85 95 100 124 133 127 122 122 119 115 116 118 117 115 115 119 123 122 117 113 106 109 105 100 93 90 85 84 85 85 80 79 88 97 98 98 99 100 100 100 98
166 156 130 117 119 119 117 121 116 115 111 111 112 113 114 111 111 109 110 111 107 106 97 103 98 95 93 91 88 85 87 88 82 81 87 96 97 99 101 103 103 103 102
149 163 131 126 120 117 121 122 117 116 116 117 119 118 116 110 108 111 108 112 110 110 102 101 100 97 95 95 93 89 87 90 89 86 87 93 97 100 102 104 104 104 105
157 156 149 118 125 120 114 113 113 115 122 123 120 123 124 121 120 119 118 115 114 114 110 104 105 101 98 96 94 92 88 91 95 93 90 91 95 99 103 104 104 105 105
177 165 157 128 119 118 117 117 119 125 126 123 120 120 128 128 127 124 118 117 117 118 119 114 111 108 101 100 94 90 89 89 92 92 92 90 90 94 101 105 104 103 103
186 169 165 145 113 120 123 121 123 129 129 123 128 128 127 130 134 130 126 123 124 123 119 112 104 107 103 99 96 92 90 87 89 89 88 88 87 88 93 96 101 103 103
167 170 171 144 126 124 121 124 123 131 129 127 132 132 129 133 138 132 128 128 131 126 121 122 116 122 113 108 104 92 87 88 87 87 85 84 83 83 85 88 90 96 100
175 175 168 156 151 139 121 115 117 121 122 127 129 130 136 136 141 138 132 132 133 126 121 131 128 135 128 117 110 94 83 85 87 86 81 79 80 81 82 84 85 86 89
173 173 167 159 158 145 130 110 103 106 107 114 121 129 138 143 143 138 134 138 137 132 128 131 135 130 132 129 112 91 74 73 81 82 85 83 81 78 78 78 77 79 83
96 136 166 169 166 156 161 170 165 177 171 124 104 122 137 143 146 140 141 142 141 148 151 141 136 136 127 127 112 95 59 54 65 71 82 85 79 77 78 77 76 76 79
160 173 166 178 176 171 177 182 178 172 168 131 99 105 133 141 149 150 138 150 150 149 149 149 142 146 145 147 136 131 117 57 31 47 68 86 81 79 76 77 80 78 81
331 215 201 188 174 175 167 146 135 111 87 92 150 148 113 138 149 147 148 154 152 154 164 166 160 154 161 169 141 143 151 176 166 24 41 80 88 84 80 81 83 85 90
279 243 192 181 165 170 160 156 157 165 175 199 191 172 116 132 139 142 151 158 153 152 163 172 165 164 161 167 168 93 116 143 152 158 342 31 72 87 89 81 89 97 99
296 266 210 181 168 164 165 162 168 174 176 151 149 145 162 137 141 141 148 153 155 159 159 164 161 160 166 165 165 155 113 99 103 149 173 194 29 6 106 134 129 112 96
353 11 301 178 190 175 170 171 175 174 170 155 155 171 182 187 151 156 159 156 160 164 163 169 168 172 174 162 156 155 151 154 159 146 161 177 193 234 291 178 144 127 111
Height
1526 1528 1530 1532 1533 1534 1534 1535 1536 1536 1537 1538 1538 1539 1540 1541 1541 1542 1542 1543 1543 1543 1544 1544 1544 1544 1545 1545 1545 1545 1545 1545 1545 1546 1546 1546 1546 1546 1546 1546 1546 1546 1546
1525 1527 1529 1531 1532 1533 1534 1535 1536 1537 1538 1538 1539 1540 1541 1541 1542 1543 1543 1544 1544 1544 1545 1545 1545 1546 1546 1546 1546 1547 1547 1547 1547 1547 1547 1548 1548 1548 1548 1548 1548 1549 1549
1525 1526 1528 1530 1532 1533 1534 1535 1536 1537 1538 1539 1539 1540 1541 1542 1542 1543 1544 1544 1545 1545 1546 1546 1546 1547 1547 1548 1548 1548 1548 1549 1549 1549 1549 1550 1550 1550 1550 1551 1551 1551 1551
1524 1526 1528 1530 1531 1533 1534 1535 1536 1537 1538 1539 1539 1540 1541 1542 1543 1543 1544 1545 1545 1546 1546 1547 1547 1548 1549 1549 1549 1550 1550 1550 1551 1551 1551 1551 1552 1552 1552 1553 1553 1553 1553
1524 1525 1527 1529 1531 1532 1533 1534 1536 1537 1538 1539 1539 1540 1541 1542 1543 1544 1544 1545 1546 1547 1547 1548 1548 1549 1549 1550 1551 1551 1551 1552 1552 1553 1553 1553 1553 1554 1554 1554 1555 1555 1555
1523 1525 1526 1528 1530 1532 1533 1534 1535 1536 1537 1538 1539 1540 1541 1542 1543 1544 1545 1546 1547 1547 1548 1549 1549 1550 1550 1551 1551 1552 1553 1553 1554 1554 1554 1555 1555 1556 1556 1556 1556 1557 1557
1522 1524 1526 1527 1529 1531 1532 1533 1534 1535 1537 1538 1539 1540 1541 1542 1543 1544 1545 1546 1547 1548 1548 1549 1550 1551 1551 1552 1552 1553 1554 1554 1555 1555 1556 1556 1556 1557 1557 1557 1558 1558 1558
1522 1524 1525 1526 1528 1529 1531 1532 1534 1535 1536 1537 1539 1540 1541 1542 1543 1544 1545 1546 1547 1548 1549 1550 1550 1551 1552 1553 1553 1554 1555 1555 1556 1556 1557 1557 1558 1558 1558 1559 1559 1559 1560
1522 1523 1524 1525 1526 1528 1529 1531 1533 1534 1535 1537 1538 1539 1540 1541 1543 1544 1545 1546 1547 1548 1549 1550 1551 1552 1553 1553 1554 1555 1555 1556 1557 1558 1558 1559 1559 1559 1559 1560 1560 1560 1561
1521 1522 1523 1524 1525 1526 1528 1530 1531 1533 1534 1535 1537 1538 1540 1541 1542 1543 1545 1546 1547 1548 1549 1550 1551 1552 1553 1554 1555 1555 1556 1557 1558 1558 1559 1560 1560 1560 1561 1561 1561 1562 1562
1519 1521 1522 1523 1524 1525 1527 1528 1530 1531 1533 1534 1535 1537 1538 1540 1541 1543 1544 1545 1547 1548 1549 1550 1551 1552 1553 1554 1555 1556 1557 1558 1558 1559 1560 1561 1561 1561 1562 1562 1562 1563 1563
1517 1519 1520 1521 1522 1523 1525 1526 1528 1530 1531 1533 1534 1536 1537 1539 1540 1542 1543 1545 1546 1547 1548 1550 1551 1552 1554 1555 1555 1556 1557 1558 1559 1560 1560 1561 1562 1562 1562 1563 1563 1563 1564
1515 1517 1518 1519 1521 1522 1523 1524 1526 1528 1529 1531 1533 1534 1536 1537 1539 1540 1542 1543 1545 1546 1547 1549 1551 1552 1554 1555 1555 1556 1557 1558 1559 1560 1561 1562 1562 1563 1563 1564 1564 1564 1565
1513 1514 1516 1517 1518 1520 1521 1522 1524 1525 1527 1529 1531 1532 1534 1536 1537 1539 1540 1542 1544 1545 1546 1548 1550 1551 1553 1554 1555 1556 1557 1558 1559 1560 1561 1562 1563 1563 1564 1564 1565 1565 1565
1511 1512 1514 1515 1516 1517 1519 1520 1521 1523 1525 1527 1528 1530 1532 1534 1535 1537 1538 1540 1542 1544 1545 1547 1549 1550 1552 1554 1555 1556 1557 1558 1559 1560 1561 1562 1563 1563 1564 1565 1565 1565 1566
1508 1509 1511 1512 1514 1515 1516 1518 1519 1521 1523 1524 1526 1528 1529 1531 1533 1535 1536 1538 1540 1542 1544 1546 1547 1549 1551 1553 1554 1555 1557 1558 1559 1560 1561 1562 1562 1563 1564 1565 1565 1566 1566
1505 1506 1508 1510 1511 1512 1514 1515 1517 1519 1520 1521 1523 1525 1526 1529 1531 1533 1534 1536 1538 1540 1541 1543 1546 1548 1550 1551 1553 1554 1556 1557 1558 1559 1560 1561 1562 1562 1563 1564 1565 1566 1566
1503 1504 1505 1506 1508 1509 1511 1513 1514 1516 1517 1519 1520 1522 1524 1526 1528 1530 1532 1534 1536 1537 1539 1541 1543 1545 1547 1549 1551 1553 1555 1556 1557 1558 1559 1560 1561 1562 1563 1563 1564 1565 1566
1500 1501 1502 1503 1505 1507 1508 1510 1512 1513 1515 1517 1518 1519 1521 1523 1525 1527 1529 1531 1533 1535 1537 1538 1540 1543 1545 1547 1549 1551 1553 1555 1556 1557 1558 1559 1560 1561 1562 1562 1564 1564 1565
1497 1498 1499 1501 1503 1504 1505 1507 1509 1511 1512 1514 1515 1517 1518 1520 1522 1524 1526 1528 1530 1532 1533 1535 1538 1540 1543 1545 1547 1549 1552 1553 1554 1555 1557 1558 1559 1560 1561 1561 1562 1563 1564
1494 1495 1496 1498 1499 1501 1502 1503 1505 1506 1508 1510 1512 1514 1516 1517 1519 1521 1523 1525 1527 1529 1530 1532 1535 1537 1539 1542 1545 1547 1550 1552 1553 1554 1555 1557 1558 1559 1560 1560 1561 1562 1563
1490 1491 1492 1493 1495 1497 1499 1500 1502 1503 1505 1507 1509 1511 1512 1514 1516 1517 1519 1521 1523 1525 1527 1529 1532 1533 1536 1539 1541 1543 1547 1551 1551 1552 1554 1555 1556 1557 1558 1559 1560 1560 1561
1488 1488 1489 1490 1492 1494 1496 1498 1499 1501 1502 1503 1505 1507 1509 1510 1512 1514 1516 1518 1520 1522 1523 1525 1528 1530 1532 1535 1538 1540 1542 1544 1548 1550 1551 1553 1554 1555 1556 1557 1557 1558 1559
1486 1486 1487 1488 1489 1490 1492 1494 1495 1496 1497 1498 1501 1503 1505 1507 1509 1511 1512 1514 1516 1518 1520 1522 1525 1527 1530 1531 1534 1537 1539 1540 1542 1545 1548 1549 1551 1552 1554 1554 1555 1556 1557
1484 1484 1485 1485 1486 1487 1489 1490 1492 1493 1494 1496 1498 1500 1502 1503 1505 1507 1509 1511 1512 1514 1516 1518 1520 1523 1526 1528 1530 1532 1535 1537 1538 1539 1542 1545 1547 1549 1551 1552 1553 1553 1554
1482 1482 1482 1483 1483 1484 1485 1487 1488 1489 1491 1492 1494 1496 1498 1500 1501 1503 1505 1507 1509 1511 1512 1515 1517 1519 1522 1525 1527 1529 1531 1533 1534 1536 1537 1540 1542 1545 1547 1549 1549 1550 1552